Погода в Рамони

Россия / Воронежская область     51°54′40″N   39°19′58″E
темп.,
°C
ветер,
м/с
пор.,
м/с
влажн.,
%
обл.,
%
осадки,
мм/ч
давл.,
гПа
погр.,
м
14 мая, пт
пт1400:00+14всв1186100 0.0 101611
03:00+13в2289100 0.0 101622
06:00+13юв249373 0.4 101699
09:00+19вюв4774100 0.4 1015472
12:00+23юв71058100 0.0 10141293
15:00+21ююв81466100 0.2 1014885
18:00+19вюв41073100 0.1 1012213
21:00+19юв4167539 0.1 1011450
15 мая, сб
сб1500:00+17ююв3109077 0.0 1011213
03:00+16ююв369343 0.0 1011103
06:00+16ююз259485 0.0 1011144
09:00+20ююз4572100 0.0 1012479
12:00+23юз565622 0.0 10131059
15:00+24юз574885 0.0 10121554
18:00+22юз37630 0.0 1013464
21:00+17юз22765 0.0 101416
16 мая, вс
вс1600:00+15юз1179100 0.0 101411
03:00+14ссв1182100 0.0 101411
06:00+15вюв1282100 0.0 101437
09:00+21юв23625 0.0 1015543
12:00+25юв22455 0.0 10141601
15:00+26в224316 0.0 10132029
18:00+23в366689 0.1 1013252
21:00+18в348662 0.5 101361
17 мая, пн
пн1700:00+16в348529 0.0 101245
03:00+15в37865 0.0 1012103
06:00+15в268424 0.0 1011127
09:00+22юв51155100 0.0 1011529
12:00+26юв611418 0.0 10101118
15:00+27вюв7134433 0.0 10091847
18:00+24юв6135539 0.0 1009815
21:00+20вюв515675 0.0 1008400
18 мая, вт
вт1800:00+18юв412655 0.0 1008289
03:00+15юв39715 0.0 1008182
06:00+16юв3978100 0.0 1008225
09:00+20ю61183100 1.6 1008668
12:00+23ю6862100 0.3 10091165
15:00+23ююз5767100 0.9 10091240
18:00+21ююз3679100 3.1 1009433
21:00+16юв51093100 11.9 1010324